This is the latest recevied weather packets stored in our database for station/object N3FAA. If no packets are shown the sender has not sent any weather packets the latest 10 day(s).
| Time | Temp. | Humidity | Pressure | Rain* | Wind** | Luminosity | Snow |
|---|---|---|---|---|---|---|---|
| 1777755315 | 29.44° C | 19% | 1009.8 hPa | 0 mm | - | 724 W/m² | - |
| 1777755012 | 30° C | 19% | 1009.8 hPa | 0 mm | - | 709 W/m² | - |
| 1777754709 | 30° C | 18% | 1009.8 hPa | 0 mm | - | 777 W/m² | - |
| 1777754407 | 30° C | 17% | 1009.9 hPa | 0 mm | - | 652 W/m² | - |
| 1777754104 | 29.44° C | 18% | 1010 hPa | 0 mm | - | 675 W/m² | - |
| 1777753800 | 28.89° C | 18% | 1009.9 hPa | 0 mm | - | 494 W/m² | - |
| 1777753496 | 29.44° C | 18% | 1010.1 hPa | 0 mm | - | 741 W/m² | - |
| 1777753195 | 28.89° C | 18% | 1010.1 hPa | 0 mm | - | 697 W/m² | - |
| 1777752890 | 28.33° C | 18% | 1010.1 hPa | 0 mm | - | 751 W/m² | - |
| 1777752587 | 28.89° C | 18% | 1010.5 hPa | 0 mm | - | 754 W/m² | - |
| 1777752283 | 28.89° C | 18% | 1010.2 hPa | 0 mm | - | 688 W/m² | - |
| 1777751981 | 28.89° C | 18% | 1010.6 hPa | 0 mm | - | 681 W/m² | - |
| 1777751678 | 28.89° C | 20% | 1010.6 hPa | 0 mm | - | 682 W/m² | - |
| 1777751374 | 28.89° C | 19% | 1010.5 hPa | 0 mm | - | 537 W/m² | - |
| 1777751072 | 29.44° C | 18% | 1010.7 hPa | 0 mm | - | 835 W/m² | - |
| 1777750767 | 28.33° C | 18% | 1010.5 hPa | 0 mm | - | 761 W/m² | - |
| 1777750465 | 28.33° C | 18% | 1010.8 hPa | 0 mm | - | 728 W/m² | - |
| 1777750160 | 27.78° C | 19% | 1011 hPa | 0 mm | - | 780 W/m² | - |
| 1777749857 | 28.33° C | 18% | 1010.8 hPa | 0 mm | - | 784 W/m² | - |
| 1777749554 | 28.89° C | 18% | 1011 hPa | 0 mm | - | 834 W/m² | - |
| 1777749252 | 28.33° C | 18% | 1011.1 hPa | 0 mm | - | 770 W/m² | - |
| 1777748949 | 27.78° C | 19% | 1011.1 hPa | 0 mm | - | 711 W/m² | - |
| 1777748646 | 27.78° C | 20% | 1011.3 hPa | 0 mm | - | 842 W/m² | - |
| 1777748342 | 28.89° C | 19% | 1011.5 hPa | 0 mm | - | 769 W/m² | - |
| 1777748038 | 27.78° C | 20% | 1011.6 hPa | 0 mm | - | 888 W/m² | - |
* Rain latest hour (hover to see other rain measurements)
** Current wind speed in m/s (hover to see current wind gust speed)